[[{"header":{"parameterUnit":"m.s-1","parameterCategory":1,"la1":30.2991,"la2":30.254,"lo1":-89.0895,"lo2":-89.0444,"dy":0.0017,"dx":0.0017,"nx":28,"ny":28,"refTime":"2023-09-09T21:00:00:Z","depth":0,"parameterNumber":2,"parameterNumberName":"U-component_of_WINDS"},"data":[0,0,0,0,0,0,0,0,0,0,0,0,0,0,0,0,0,0,0,0,0,0,0,0,0,0,0,0,0,0,0,0,0,0,0,0,0,0,0,0,0,0,0,0,0,0,0,0,0,0,0,0,0,0,0,0,0,0,1.401,1.4012,0,1.4198,1.42,1.4202,1.4218,1.4216,1.4214,1.4212,1.4409,1.4416,1.4423,0,0,0,0,0,0,0,0,0,0,0,0,0,1.3668,1.3674,1.4009,1.4012,1.4014,1.4197,1.42,1.4202,1.4219,1.4216,1.4214,1.4212,1.4407,1.4415,1.4424,0,0,0,0,0,0,0,0,0,0,0,0,0,1.3832,1.3676,1.4009,1.4044,1.4049,1.4197,1.42,1.4203,1.4219,1.4216,1.4213,1.421,1.4404,1.4415,1.4425,1.4551,0,0,1.4458,1.4462,0,0,0,0,0,0,0,0,1.3823,1.3845,1.4037,1.4042,1.4048,1.4181,1.4152,1.432,1.422,1.4155,1.4212,1.4209,1.4336,1.4352,1.4394,1.4561,1.4569,1.4459,1.4465,1.447,1.4473,0,0,0,0,0,0,0,1.3812,1.3837,1.4084,1.404,1.4046,1.4052,1.4072,1.4184,1.426,1.416,1.4162,1.4184,1.4339,1.4384,1.4399,1.4572,1.4458,1.4468,1.4474,1.4479,1.4851,1.4854,0,0,0,0,0,0,1.3793,1.3827,1.4078,1.409,1.3926,1.406,1.4083,1.4142,1.4259,1.4274,1.4186,1.4184,1.4367,1.4387,1.4406,1.4561,1.447,1.448,1.4486,1.4848,1.4852,1.4856,0,0,0,0,0,0,1.3786,1.3815,1.407,1.3959,1.3992,1.4069,1.4136,1.4147,1.4192,1.4279,1.4293,1.4218,1.4366,1.4391,1.4515,1.4568,1.4484,1.4494,1.4843,1.4849,1.4854,1.4872,0,0,0,0,0,0,1.3776,1.3812,1.386,1.396,1.3998,1.4175,1.4139,1.4153,1.421,1.4209,1.4312,1.4327,1.4365,1.4499,1.4525,1.4581,1.4502,1.4839,1.4846,1.4852,1.4867,1.4877,1.4885,0,0,0,0,0,1.3763,1.3859,1.3863,1.3893,1.4059,1.4178,1.42,1.4241,1.4214,1.4263,1.4319,1.4323,1.4558,1.4511,1.4541,1.4601,1.4836,1.4844,1.4852,1.4862,1.4875,1.4885,0,0,0,0,0,0,1.3765,1.3873,1.3878,1.4008,1.4084,1.418,1.4243,1.4253,1.4338,1.4334,1.4383,1.4406,1.4528,1.4577,1.4523,1.4729,1.4694,1.4709,1.4692,1.4705,1.4714,1.4699,1.4511,0,0,0,0,0,1.378,1.3867,1.3957,1.4063,1.41,1.4165,1.4219,1.4244,1.4325,1.4357,1.4422,1.4501,1.4592,1.4652,1.4741,1.4874,1.4897,1.493,1.494,1.4947,1.4958,1.5032,1.5048,1.4881,1.4881,1.4881,0,0,1.3813,1.3883,1.3934,1.4065,1.4126,1.4215,1.4192,1.4288,1.4354,1.4372,1.4492,1.4542,1.4634,1.4763,1.4823,1.4808,1.501,1.4957,1.4962,1.497,1.5042,1.5057,1.5071,1.4887,1.4886,1.4885,0,0,1.3918,1.3979,1.4074,1.4136,1.4228,1.4271,1.4294,1.439,1.4423,1.4544,1.4559,1.464,1.4797,1.4861,1.4914,1.5043,1.505,1.5072,1.512,1.5192,1.5205,1.5216,1.5261,1.5277,1.5083,1.5083,1.5083,0,1.3947,1.408,1.4122,1.4217,1.4274,1.4293,1.4389,1.4448,1.4565,1.4604,1.4586,1.4782,1.4846,1.4989,1.502,1.5063,1.5091,1.5059,1.5199,1.5211,1.5223,1.5267,1.5283,1.5085,1.5085,1.5084,1.5084,0,1.4111,1.4204,1.427,1.4381,1.4445,1.4541,1.4597,1.4658,1.4678,1.4723,1.4846,1.4923,1.5027,1.5063,1.5085,1.521,1.5198,1.5189,1.5154,1.524,1.5281,1.5299,1.5087,1.5087,1.5086,1.5086,0,0,1.4221,1.4354,1.4377,1.4427,1.4531,1.4604,1.4701,1.4801,1.4852,1.4933,1.5015,1.5147,1.5139,1.52,1.5229,1.5291,1.5387,1.5275,1.5277,1.5291,1.5529,1.5534,1.5553,1.5393,1.5396,1.5399,1.5521,0,1.4336,1.4507,1.4547,1.4693,1.4779,1.4799,1.4883,1.4956,1.5001,1.5081,1.5132,1.5224,1.5207,1.5243,1.5306,1.5362,1.5435,1.5354,1.547,1.5473,1.5444,1.5575,1.558,1.5692,1.5538,1.5541,1.5543,0,1.4493,1.4576,1.473,1.4822,1.4859,1.4934,1.5029,1.5106,1.519,1.5218,1.5285,1.5308,1.541,1.5371,1.5512,1.5456,1.5506,1.5541,1.5546,1.5557,1.5512,1.5588,1.5729,1.5744,1.5569,1.5567,1.5565,0,1.4556,1.4706,1.4817,1.486,1.4971,1.5022,1.5071,1.5152,1.521,1.5294,1.5332,1.5427,1.5479,1.5553,1.5601,1.5569,1.5738,1.5704,1.5764,1.5763,1.5798,1.5795,1.5947,1.5833,1.5833,1.5832,1.5832,0,1.4679,1.4772,1.4847,1.4915,1.502,1.5067,1.517,1.522,1.5291,1.537,1.5394,1.5468,1.5527,1.561,1.5648,1.5759,1.5783,1.5809,1.5817,1.5805,1.5802,1.5838,1.5831,1.5837,1.5836,1.5835,1.5834,0,1.4766,1.482,1.4942,1.5036,1.5062,1.5136,1.5217,1.5285,1.533,1.543,1.5456,1.5528,1.5626,1.5681,1.5806,1.5831,1.5954,1.596,1.5925,1.5928,1.5985,1.5978,1.6164,1.6191,1.6061,1.6062,1.6063,0,1.484,1.4912,1.5014,1.5068,1.5117,1.5204,1.5262,1.5311,1.5372,1.5472,1.5528,1.5627,1.5709,1.5865,1.5929,1.6024,1.6031,1.609,1.6046,1.6031,1.603,1.6025,1.6032,1.6097,1.6098,1.6099,1.61,0,1.4966,1.4988,1.5071,1.5164,1.5233,1.5309,1.5384,1.5427,1.5488,1.5555,1.5655,1.5718,1.5844,1.5942,1.6042,1.6094,1.6107,1.6113,1.6132,1.612,1.6096,1.6108,1.5944,1.6109,1.6108,1.6107,1.6107,1.6106,1.5048,1.5112,1.5193,1.5285,1.5346,1.5416,1.5483,1.5537,1.5621,1.5726,1.575,1.5855,1.5938,1.6073,1.6127,1.6211,1.62,1.6228,1.6234,1.624,1.6241,1.6084,1.6229,1.6229,1.6229,1.6229,1.6229,0,1.5173,1.5226,1.531,1.5413,1.5485,1.5491,1.5575,1.5635,1.5726,1.5802,1.5881,1.5996,1.6091,1.6162,1.626,1.6313,1.6322,1.6337,1.6333,1.6344,1.6246,1.6219,1.6328,1.6328,1.6328,1.6328,1.6328,1.6328,1.5246,1.5355,1.5387,1.5527,1.5581,1.5682,1.5729,1.5794,1.5854,1.598,1.6059,1.6104,1.6178,1.6282,1.6369,1.6388,1.6422,1.6436,1.6456,1.6362,1.6351,1.6341,1.6316,1.6444,1.6444,1.6547,1.6548,1.6549]},{"header":{"parameterUnit":"m.s-1","parameterCategory":1,"la1":30.2991,"la2":30.254,"lo1":-89.0895,"lo2":-89.0444,"dy":0.0017,"dx":0.0017,"nx":28,"ny":28,"refTime":"2023-09-09T21:00:00:Z","depth":0,"parameterNumber":3,"parameterNumberName":"V-component_of_WINDS"},"data":[0,0,0,0,0,0,0,0,0,0,0,0,0,0,0,0,0,0,0,0,0,0,0,0,0,0,0,0,0,0,0,0,0,0,0,0,0,0,0,0,0,0,0,0,0,0,0,0,0,0,0,0,0,0,0,0,0,0,1.2564,1.2564,0,1.2569,1.2569,1.2569,1.2493,1.2491,1.2489,1.2487,1.2494,1.2496,1.2498,0,0,0,0,0,0,0,0,0,0,0,0,0,1.2486,1.2488,1.2564,1.2564,1.2564,1.2569,1.2569,1.2569,1.2494,1.2491,1.2489,1.2486,1.2493,1.2495,1.2498,0,0,0,0,0,0,0,0,0,0,0,0,0,1.2509,1.2489,1.2564,1.2527,1.2524,1.2569,1.2569,1.2569,1.2494,1.2491,1.2488,1.2485,1.2492,1.2495,1.2498,1.258,0,0,1.2508,1.2509,0,0,0,0,0,0,0,0,1.2508,1.2512,1.2532,1.2529,1.2526,1.2527,1.2544,1.2573,1.2495,1.2505,1.2487,1.2483,1.2507,1.2509,1.2517,1.258,1.258,1.2508,1.251,1.2511,1.2512,0,0,0,0,0,0,0,1.2506,1.2511,1.2566,1.2533,1.2529,1.2509,1.2509,1.2549,1.2524,1.2504,1.2499,1.25,1.2505,1.2514,1.2516,1.258,1.2508,1.2511,1.2513,1.2514,1.2705,1.2708,0,0,0,0,0,0,1.251,1.251,1.2566,1.2566,1.2509,1.2513,1.2513,1.253,1.2523,1.2519,1.2503,1.2497,1.251,1.2513,1.2516,1.2607,1.2511,1.2514,1.2516,1.2702,1.2706,1.2709,0,0,0,0,0,0,1.2508,1.2515,1.2566,1.2537,1.2542,1.2518,1.2538,1.2532,1.2541,1.2522,1.2517,1.2517,1.2508,1.2512,1.2563,1.2607,1.2516,1.2519,1.2698,1.2703,1.2708,1.2793,0,0,0,0,0,0,1.2506,1.2515,1.2547,1.2538,1.2543,1.2613,1.254,1.2534,1.2546,1.2538,1.2534,1.253,1.2506,1.2559,1.2566,1.261,1.2521,1.2694,1.27,1.2706,1.2786,1.28,1.2812,0,0,0,0,0,1.2504,1.2572,1.2549,1.2556,1.2582,1.2616,1.2619,1.2589,1.255,1.2581,1.2568,1.253,1.2601,1.2565,1.2573,1.2617,1.2691,1.2699,1.2706,1.2781,1.2798,1.2812,0,0,0,0,0,0,1.2589,1.2571,1.2545,1.2612,1.2616,1.2603,1.2641,1.2609,1.2625,1.2617,1.2579,1.2579,1.2635,1.2632,1.2592,1.2693,1.2639,1.2648,1.2693,1.2709,1.2722,1.2721,1.2524,0,0,0,0,0,1.2615,1.2644,1.2627,1.2688,1.2691,1.2666,1.268,1.2656,1.2659,1.266,1.2651,1.2655,1.2678,1.2694,1.2714,1.2786,1.2782,1.282,1.2833,1.2844,1.2851,1.2884,1.29,1.2733,1.2733,1.2733,0,0,1.2671,1.2664,1.2685,1.2705,1.2705,1.2734,1.2668,1.2704,1.2724,1.2666,1.2712,1.2706,1.2708,1.2768,1.2795,1.2767,1.2897,1.2853,1.2861,1.2863,1.2893,1.2909,1.2923,1.2738,1.2737,1.2736,0,0,1.2785,1.2785,1.2833,1.2834,1.2834,1.2816,1.2828,1.2819,1.2812,1.2858,1.2813,1.2838,1.2879,1.288,1.2886,1.2997,1.2962,1.3005,1.3072,1.3105,1.3118,1.3129,1.3166,1.3179,1.3013,1.3013,1.3013,0,1.2854,1.2897,1.2863,1.2899,1.2908,1.2854,1.2901,1.2904,1.2912,1.2918,1.2887,1.2934,1.2932,1.299,1.3016,1.3025,1.3034,1.3005,1.3119,1.313,1.314,1.3174,1.3188,1.3018,1.3018,1.3017,1.3017,0,1.2979,1.3009,1.3048,1.3054,1.3067,1.311,1.308,1.3098,1.3072,1.3057,1.3102,1.3097,1.3113,1.3125,1.3102,1.3179,1.3161,1.3126,1.307,1.3162,1.3193,1.3206,1.3025,1.3024,1.3022,1.3021,0,0,1.3149,1.3132,1.3147,1.3147,1.3142,1.3164,1.3202,1.3217,1.323,1.3237,1.3266,1.33,1.3265,1.3272,1.3248,1.3277,1.336,1.3237,1.3236,1.3257,1.344,1.3466,1.3481,1.3337,1.3339,1.3341,1.3439,0,1.3258,1.3322,1.329,1.3358,1.3383,1.333,1.3363,1.3363,1.3349,1.3368,1.3353,1.3375,1.333,1.3333,1.336,1.3345,1.3396,1.3337,1.3362,1.3363,1.3361,1.3498,1.3526,1.3619,1.3451,1.3453,1.3455,0,1.3394,1.3403,1.3472,1.3457,1.3467,1.3497,1.3505,1.3525,1.3522,1.3509,1.3515,1.3483,1.3517,1.3463,1.3509,1.3469,1.3477,1.3471,1.3474,1.3473,1.3413,1.3499,1.3648,1.3661,1.3474,1.3473,1.3471,0,1.3506,1.3536,1.358,1.3582,1.3567,1.3589,1.3584,1.3578,1.3587,1.3594,1.3599,1.3611,1.3617,1.3626,1.3597,1.3561,1.3645,1.359,1.3634,1.3635,1.3653,1.3652,1.3803,1.3663,1.3663,1.3662,1.3662,0,1.363,1.3673,1.3629,1.3657,1.3703,1.3665,1.3712,1.3701,1.3695,1.3718,1.3675,1.3697,1.3658,1.3676,1.3653,1.3692,1.3696,1.3685,1.3678,1.3688,1.3689,1.3692,1.3684,1.3666,1.3665,1.3664,1.3664,0,1.3763,1.3736,1.378,1.3761,1.3757,1.3791,1.3775,1.3798,1.378,1.3809,1.3814,1.3786,1.3804,1.3775,1.3792,1.3776,1.3829,1.3813,1.3829,1.3824,1.3869,1.3864,1.4025,1.4042,1.3893,1.3895,1.3896,0,1.3843,1.3874,1.3858,1.3869,1.3865,1.3885,1.3893,1.3857,1.3867,1.3863,1.3886,1.3901,1.391,1.3941,1.3922,1.3932,1.3915,1.3971,1.3917,1.3924,1.3912,1.391,1.3911,1.3981,1.3983,1.3985,1.3986,0,1.3985,1.3969,1.3982,1.3989,1.4,1.4004,1.4005,1.4017,1.3978,1.3992,1.4009,1.4016,1.403,1.4043,1.4049,1.4042,1.4007,1.4003,1.4013,1.4023,1.4029,1.4023,1.3857,1.3999,1.3998,1.3997,1.3996,1.3996,1.4092,1.4116,1.4107,1.4121,1.4118,1.4119,1.4138,1.4121,1.4135,1.4142,1.412,1.4142,1.4134,1.4137,1.4134,1.415,1.4125,1.4141,1.4144,1.4148,1.4154,1.4028,1.4151,1.415,1.415,1.415,1.4149,0,1.423,1.422,1.4234,1.4235,1.4246,1.4211,1.4209,1.4221,1.424,1.4236,1.4244,1.4262,1.4274,1.4255,1.4263,1.4279,1.4262,1.4282,1.4279,1.4277,1.4177,1.4166,1.4294,1.4294,1.4294,1.4294,1.4294,1.4294,1.4302,1.434,1.4322,1.4356,1.4346,1.4365,1.4367,1.4367,1.4363,1.4384,1.4393,1.438,1.4368,1.4375,1.4383,1.4377,1.4381,1.4405,1.4393,1.4299,1.4285,1.4272,1.4261,1.4407,1.4407,1.4492,1.4493,1.4493]}]]